Location: Shell Point
(30.0571°N, 84.2896°W)
Time: 00:44:18
(UTC-04:00)

Daily predictions for brighter satellites

Satellite Brightness Start Highest point End
(mag) Time Altitude Azimuth Time Altitude Azimuth Time Altitude Azimuth
Cosmos 2369 Rocket 4.3 03:38:02 10° N 03:41:29 23° NE 03:41:29 23° NE
USA 234 4.2 03:43:43 10° NE 03:47:57 43° NNE 03:47:57 43° NNE
SL-16 R/B 3.7 03:52:08 38° NE 03:52:08 38° NE 03:57:05 10° N
Resurs 1-4 Rocket 3.9 03:56:13 10° NNE 03:58:41 27° NE 03:58:41 27° NE
CENTAUR R/B 3.1 04:19:17 49° E 04:19:17 49° E 04:24:39 10° NE
ATLAS 5 CENTAUR R/B 3.3 04:33:27 32° N 04:33:27 32° N 04:36:14 10° NNE
Cosmos 839 Rocket 4.0 04:41:58 10° NNW 04:49:31 78° WSW 04:49:55 75° SSW
CZ-4B R/B 4.1 04:56:25 10° NNE 04:59:29 36° E 04:59:29 36° E
Okean O Rocket 1.8 05:00:06 10° NNE 05:04:08 70° NE 05:04:08 70° NE
Atlas Centaur 2 2.6 05:07:31 35° SE 05:07:31 35° SE 05:11:29 10° E
CZ-2D R/B 3.4 05:02:19 10° N 05:05:16 26° NW 05:05:16 26° NW
Cosmos 1302 Rocket 4.1 05:03:32 10° NNW 05:07:50 58° NW 05:07:50 58° NW
COSMOS 2406 3.1 05:08:58 61° SSW 05:10:02 88° ESE 05:15:49 10° NNE
Cosmos 1703 Rocket 4.1 05:12:39 40° SSE 05:13:57 56° E 05:18:21 10° NNE
Sich 1 Rocket 3.7 05:15:27 10° N 05:19:50 71° E 05:22:01 29° SSE
SeaSat 1 2.5 05:19:51 10° SSE 05:24:45 76° ENE 05:29:41 10° NNW
Cosmos 2369 Rocket 3.8 05:21:28 10° NW 05:23:07 18° NW 05:23:07 18° NW
CZ-4B DEB 4.1 05:24:10 10° N 05:29:39 83° WNW 05:32:22 31° SSW
CZ-4B R/B 3.0 05:25:51 10° N 05:31:06 73° WNW 05:33:13 37° SSW
SL-16 R/B 3.9 05:37:14 20° WNW 05:37:14 20° WNW 05:39:58 10° NW
Geosat 4.0 05:31:30 10° NNE 05:36:32 81° ESE 05:39:22 27° SSW
COSMOS 2487 3.3 05:35:37 29° SSE 05:37:08 50° ESE 05:40:38 10° NNE
Resurs 1-4 Rocket 4.0 05:37:54 10° NW 05:39:46 14° NW 05:39:46 14° NW
CZ-2C R/B 3.5 05:37:47 20° S 05:40:49 64° WSW 05:45:13 10° NNW
PSLV R/B 3.9 05:36:43 10° NNE 05:41:06 67° ESE 05:44:50 14° S
GPS 2-05 Rocket1 2.5 05:43:30 74° W 05:43:46 86° NNW 05:47:04 10° ENE
Cosmos 1190 Rocket 3.9 05:45:57 25° SSW 05:48:58 72° WNW 05:54:09 10° NNE
Cosmos 1943 Rocket 2.2 05:43:54 10° NNW 05:49:27 59° WSW 05:54:56 10° S
Thor Agena Rocket 3.5 05:45:33 10° SSE 05:50:39 89° ENE 05:55:51 10° NNW
Okean 1-7 2.9 05:49:18 18° S 05:52:27 80° W 05:56:48 10° N
Intelsat 3F5 C 3.4 05:52:55 81° NW 05:52:59 83° N 05:55:31 10° E
Nadezhda 1 Rocket 4.1 05:49:29 18° SSW 05:54:05 54° W 06:00:17 10° N
ADEOS II 2.2 05:50:20 10° NNE 05:55:36 80° ESE 06:00:51 10° S
Okean 2 Rocket 3.4 05:52:54 10° N 05:57:24 70° E 06:01:54 10° SSE
Cosmos 1408 2.8 05:54:34 10° NNW 05:58:11 48° W 06:00:53 16° SSW
Aureole 3 Rocket 4.2 05:52:12 10° SSW 06:00:02 60° W 06:05:39 10° N
USA 32 4.3 05:57:27 17° SSW 06:01:11 46° W 06:06:13 10° N
MOZ.5/SAFIR/RUBIN 5/SL-8 4.4 06:01:11 20° SW 06:03:32 31° W 06:07:39 10° NW
Cosmos 1992 Rocket 3.9 05:58:55 10° NNW 06:04:09 77° WSW 06:09:22 10° S
Meteor 1-31 Rocket 3.7 06:01:17 10° NNE 06:04:59 49° E 06:08:40 10° S
Centaur D-1A AC-31 1.8 05:58:26 16° W 06:05:45 70° S 06:09:19 10° ESE
Cosmos 2181 Rocket 4.3 05:59:28 10° S 06:05:54 77° E 06:12:18 10° N
Cosmos 1825 2.7 06:02:25 10° NNW 06:05:55 36° W 06:08:36 15° SSW
Cosmos 1954 Rocket 4.2 06:03:20 10° S 06:08:28 74° ESE 06:13:38 10° NNE
CENTAUR R/B 3.9 06:06:29 16° W 06:09:24 22° NW 06:14:25 10° N
ADEOS Rocket 3.6 06:01:45 10° N 06:09:29 71° WNW 06:17:03 10° SSW
CSL-04 DEB 4.5 06:11:02 10° N 06:15:16 84° WNW 06:19:36 10° SSW
AVUM R/B 3.9 06:17:06 21° WSW 06:18:35 34° WNW 06:21:37 10° N
Cosmos 1782 Rocket 3.8 06:15:22 10° NNW 06:19:31 45° W 06:23:38 10° SSW
Cosmos 1862 4.5 06:17:00 10° NW 06:20:07 22° W 06:22:49 12° SW
Cosmos 1656 Rocket 3.5 06:15:20 10° NNW 06:20:43 70° WSW 06:26:05 10° S
OAO 3 Copernicus 4.3 06:17:11 11° WNW 06:22:07 78° SSW 06:27:08 10° ESE
Cosmos 676 Rocket 4.1 06:21:38 10° SSW 06:26:40 53° WNW 06:31:44 10° N
Centaur D-1AR AC-36 3.3 06:20:43 12° WSW 06:27:07 30° S 06:30:21 10° ESE
Timation 2 Rocket 4.5 06:21:19 10° S 06:27:33 63° ESE 06:33:35 10° NNE
Cosmos 2154 Rocket 4.1 06:21:35 10° NNW 06:27:48 61° W 06:34:00 10° S
Feng Yun 1-1 Rocket 4.5 06:25:47 10° N 06:30:55 46° WNW 06:36:04 10° SW
COSMO-SKYMED 1 4.3 06:32:28 10° SE 06:36:29 38° ENE 06:40:30 10° N
Meteor 1-14 Rocket 4.4 06:34:15 10° NNW 06:39:58 58° W 06:45:46 10° S
Okean-O 3.9 06:42:32 10° NNW 06:45:55 22° WNW 06:49:18 10° WSW
Cosmos 2341 Rocket 4.2 06:42:59 10° NNW 06:49:02 52° W 06:55:09 10° SSW
